When you browse on this site, cookies collect data to enhance your experience and personalize the content and advertising you see.
Visit our Privacy Policy to learn more. By continuing to use the site, you agree to this use of cookies and data.
  • In Spain
  • List of Countries
  • For 7 days
  • Water Temperature
  • Weather Map
  • Weather Widgets
  • user-avatar
    Login

    Hourly Weather Tarim

    Today, 12 December, Thursday

    Time Temperature Precipitation Wind Pressure Humidity
    00:00 +24°C° 0 mm 1 mps 707 mmHg 45%
    01:00 +24°C° 0 mm 1 mps 707 mmHg 46%
    02:00 +24°C° 0 mm 1 mps 706 mmHg 47%
    03:00 +23°C° 0 mm 1 mps 706 mmHg 49%
    04:00 +23°C° 0 mm 1 mps 706 mmHg 53%
    05:00 +22°C° 0 mm 1 mps 707 mmHg 58%
    06:00 +22°C° 0 mm 1 mps 707 mmHg 63%
    07:00 +24°C° 0 mm 1 mps 708 mmHg 59%
    08:00 +26°C° 0 mm 2 mps 708 mmHg 56%
    09:00 +28°C° 0 mm 2 mps 709 mmHg 52%
    10:00 +30°C° 0 mm 3 mps 708 mmHg 45%
    11:00 +31°C° 0 mm 3 mps 708 mmHg 37%
    12:00 +34°C° 0 mm 3 mps 707 mmHg 30%
    13:00 +34°C° 0 mm 3 mps 707 mmHg 28%
    14:00 +35°C° 0 mm 3 mps 706 mmHg 27%
    15:00 +35°C° 0 mm 3 mps 705 mmHg 25%
    16:00 +34°C° 0 mm 3 mps 706 mmHg 28%
    17:00 +31°C° 0 mm 3 mps 706 mmHg 30%
    18:00 +30°C° 0 mm 3 mps 707 mmHg 33%
    19:00 +29°C° 0 mm 2 mps 707 mmHg 36%
    20:00 +28°C° 0 mm 2 mps 707 mmHg 39%
    21:00 +26°C° 0 mm 2 mps 707 mmHg 42%
    22:00 +26°C° 0 mm 1 mps 707 mmHg 45%
    23:00 +25°C° 0 mm 1 mps 707 mmHg 47%

    Tomorrow, 13 December, Friday

    Time Temperature Precipitation Wind Pressure Humidity
    00:00 +24°C° 0 mm 1 mps 707 mmHg 50%
    01:00 +23°C° 0 mm 1 mps 706 mmHg 53%
    02:00 +23°C° 0 mm 1 mps 706 mmHg 57%
    03:00 +22°C° 0 mm 1 mps 706 mmHg 60%
    04:00 +22°C° 0 mm 1 mps 706 mmHg 64%
    05:00 +21°C° 0 mm 1 mps 707 mmHg 68%
    06:00 +19°C° 0 mm 0 mps 707 mmHg 72%
    07:00 +23°C° 0 mm 1 mps 708 mmHg 63%
    08:00 +25°C° 0 mm 1 mps 708 mmHg 54%
    09:00 +28°C° 0 mm 1 mps 709 mmHg 44%
    10:00 +30°C° 0 mm 1 mps 708 mmHg 39%
    11:00 +31°C° 0 mm 2 mps 708 mmHg 33%
    12:00 +34°C° 0 mm 2 mps 708 mmHg 27%
    13:00 +35°C° 0 mm 2 mps 707 mmHg 25%
    14:00 +35°C° 0 mm 2 mps 707 mmHg 23%
    15:00 +36°C° 0 mm 2 mps 706 mmHg 20%
    16:00 +34°C° 0 mm 3 mps 707 mmHg 24%
    17:00 +31°C° 0 mm 3 mps 707 mmHg 27%
    18:00 +29°C° 0 mm 4 mps 707 mmHg 31%
    19:00 +28°C° 0 mm 3 mps 707 mmHg 38%
    20:00 +27°C° 0 mm 3 mps 708 mmHg 45%
    21:00 +25°C° 0 mm 2 mps 708 mmHg 53%
    22:00 +24°C° 0 mm 2 mps 708 mmHg 55%
    23:00 +24°C° 0 mm 1 mps 708 mmHg 58%

    Day after tomorrow, 14 December, Saturday

    Time Temperature Precipitation Wind Pressure Humidity
    00:00 +23°C° 0 mm 1 mps 707 mmHg 61%
    01:00 +22°C° 0 mm 1 mps 707 mmHg 61%
    02:00 +22°C° 0 mm 1 mps 707 mmHg 62%
    03:00 +21°C° 0 mm 1 mps 707 mmHg 63%
    04:00 +21°C° 0 mm 1 mps 707 mmHg 64%
    05:00 +20°C° 0 mm 1 mps 708 mmHg 64%
    06:00 +20°C° 0 mm 1 mps 708 mmHg 65%
    07:00 +22°C° 0 mm 1 mps 709 mmHg 58%
    08:00 +25°C° 0 mm 1 mps 709 mmHg 51%
    09:00 +27°C° 0 mm 2 mps 710 mmHg 43%
    10:00 +29°C° 0 mm 2 mps 709 mmHg 38%
    11:00 +30°C° 0 mm 2 mps 709 mmHg 33%
    12:00 +33°C° 0 mm 3 mps 709 mmHg 27%
    13:00 +34°C° 0 mm 3 mps 708 mmHg 24%
    14:00 +35°C° 0 mm 4 mps 708 mmHg 22%
    15:00 +35°C° 0 mm 5 mps 707 mmHg 19%
    16:00 +33°C° 0 mm 4 mps 708 mmHg 22%
    17:00 +30°C° 0 mm 4 mps 708 mmHg 25%
    18:00 +28°C° 0 mm 3 mps 708 mmHg 28%
    19:00 +27°C° 0 mm 3 mps 708 mmHg 33%
    20:00 +26°C° 0 mm 3 mps 709 mmHg 38%
    21:00 +25°C° 0 mm 3 mps 709 mmHg 44%
    22:00 +24°C° 0 mm 2 mps 709 mmHg 50%
    23:00 +23°C° 0 mm 2 mps 708 mmHg 56%

    15 December, Sunday

    Time Temperature Precipitation Wind Pressure Humidity
    00:00 +22°C° 0 mm 1 mps 708 mmHg 62%
    01:00 +21°C° 0 mm 1 mps 708 mmHg 66%
    02:00 +21°C° 0 mm 1 mps 707 mmHg 70%
    03:00 +20°C° 0 mm 1 mps 707 mmHg 74%
    04:00 +20°C° 0 mm 1 mps 707 mmHg 78%
    05:00 +19°C° 0 mm 1 mps 708 mmHg 81%
    06:00 +19°C° 0 mm 1 mps 708 mmHg 85%
    07:00 +21°C° 0 mm 1 mps 708 mmHg 73%
    08:00 +24°C° 0 mm 2 mps 709 mmHg 60%
    09:00 +27°C° 0 mm 2 mps 709 mmHg 48%
    10:00 +29°C° 0 mm 3 mps 709 mmHg 40%
    11:00 +32°C° 0 mm 4 mps 708 mmHg 32%
    12:00 +34°C° 0 mm 6 mps 708 mmHg 24%
    13:00 +34°C° 0 mm 6 mps 708 mmHg 23%
    14:00 +35°C° 0 mm 6 mps 707 mmHg 22%
    15:00 +35°C° 0 mm 6 mps 707 mmHg 21%
    16:00 +33°C° 0 mm 5 mps 707 mmHg 25%
    17:00 +30°C° 0 mm 4 mps 707 mmHg 30%
    18:00 +28°C° 0 mm 4 mps 707 mmHg 34%
    19:00 +26°C° 0 mm 3 mps 708 mmHg 42%
    20:00 +25°C° 0 mm 3 mps 708 mmHg 50%
    21:00 +24°C° 0 mm 2 mps 708 mmHg 59%
    22:00 +23°C° 0 mm 2 mps 708 mmHg 64%
    23:00 +21°C° 0 mm 2 mps 708 mmHg 69%

    16 December, Monday

    Time Temperature Precipitation Wind Pressure Humidity
    00:00 +20°C° 0 mm 2 mps 708 mmHg 75%
    01:00 +20°C° 0 mm 2 mps 707 mmHg 79%
    02:00 +20°C° 0 mm 1 mps 707 mmHg 82%
    03:00 +20°C° 0 mm 1 mps 707 mmHg 86%
    04:00 +19°C° 0 mm 1 mps 707 mmHg 88%
    05:00 +19°C° 0 mm 1 mps 707 mmHg 90%
    06:00 +18°C° 0 mm 1 mps 707 mmHg 91%
    07:00 +19°C° 0 mm 2 mps 708 mmHg 80%
    08:00 +21°C° 0 mm 3 mps 708 mmHg 69%
    09:00 +24°C° 0 mm 3 mps 709 mmHg 57%
    10:00 +26°C° 0 mm 4 mps 708 mmHg 46%
    11:00 +29°C° 0 mm 5 mps 708 mmHg 35%
    12:00 +32°C° 0 mm 5 mps 708 mmHg 24%
    13:00 +32°C° 0 mm 5 mps 707 mmHg 22%
    14:00 +33°C° 0 mm 6 mps 707 mmHg 20%
    15:00 +33°C° 0 mm 6 mps 707 mmHg 18%
    16:00 +30°C° 0 mm 5 mps 707 mmHg 24%
    17:00 +28°C° 0 mm 4 mps 707 mmHg 30%
    18:00 +26°C° 0 mm 4 mps 707 mmHg 36%
    19:00 +24°C° 0 mm 3 mps 707 mmHg 47%
    20:00 +23°C° 0 mm 2 mps 707 mmHg 59%
    21:00 +20°C° 0 mm 2 mps 708 mmHg 71%
    22:00 +20°C° 0 mm 2 mps 707 mmHg 75%
    23:00 +19°C° 0 mm 2 mps 707 mmHg 79%

    17 December, Tuesday

    Time Temperature Precipitation Wind Pressure Humidity
    00:00 +19°C° 0 mm 1 mps 707 mmHg 83%
    01:00 +19°C° 0 mm 1 mps 707 mmHg 85%
    02:00 +18°C° 0 mm 1 mps 707 mmHg 87%
    03:00 +18°C° 0 mm 1 mps 706 mmHg 90%
    04:00 +18°C° 0 mm 1 mps 707 mmHg 90%
    05:00 +16°C° 0 mm 1 mps 707 mmHg 91%
    06:00 +16°C° 0 mm 1 mps 707 mmHg 92%
    07:00 +18°C° 0 mm 2 mps 707 mmHg 83%
    08:00 +20°C° 0 mm 3 mps 708 mmHg 73%
    09:00 +22°C° 0 mm 3 mps 708 mmHg 64%
    10:00 +25°C° 0 mm 3 mps 708 mmHg 53%
    11:00 +27°C° 0 mm 3 mps 708 mmHg 42%
    12:00 +29°C° 0 mm 3 mps 708 mmHg 32%
    13:00 +30°C° 0 mm 3 mps 707 mmHg 29%
    14:00 +31°C° 0 mm 3 mps 707 mmHg 26%
    15:00 +33°C° 0 mm 3 mps 707 mmHg 23%
    16:00 +30°C° 0 mm 3 mps 707 mmHg 28%
    17:00 +28°C° 0 mm 4 mps 707 mmHg 34%
    18:00 +26°C° 0 mm 4 mps 707 mmHg 39%
    19:00 +23°C° 0 mm 4 mps 707 mmHg 49%
    20:00 +22°C° 0 mm 4 mps 708 mmHg 59%
    21:00 +21°C° 0 mm 3 mps 708 mmHg 69%
    22:00 +20°C° 0 mm 3 mps 708 mmHg 74%
    23:00 +19°C° 0 mm 2 mps 708 mmHg 80%
    Show more